This is the latest recevied weather packets stored in our database for station/object N1IJV-10. If no packets are shown the sender has not sent any weather packets the latest 10 day(s).
| Time | Temp. | Humidity | Pressure | Rain* | Wind** | Luminosity | Snow |
|---|---|---|---|---|---|---|---|
| 1777735618 | 10.56° C | 51% | 1019.5 hPa | 0 mm | - | 819 W/m² | - |
| 1777735315 | 10° C | 51% | 1019.3 hPa | 0 mm | - | 739 W/m² | - |
| 1777735012 | 9.44° C | 50% | 1019.5 hPa | 0 mm | - | 704 W/m² | - |
| 1777734710 | 10° C | 52% | 1019.4 hPa | 0 mm | - | 606 W/m² | - |
| 1777734407 | 10.56° C | 52% | 1019.4 hPa | 0 mm | - | 668 W/m² | - |
| 1777734103 | 9.44° C | 51% | 1019.3 hPa | 0 mm | - | 633 W/m² | - |
| 1777733799 | 9.44° C | 56% | 1019.4 hPa | 0 mm | - | 642 W/m² | - |
| 1777733496 | 10° C | 51% | 1019.6 hPa | 0 mm | - | 653 W/m² | - |
| 1777733192 | 9.44° C | 51% | 1019.5 hPa | 0 mm | - | 629 W/m² | - |
| 1777732889 | 9.44° C | 50% | 1019.4 hPa | 0 mm | - | 615 W/m² | - |
| 1777732586 | 8.89° C | 57% | 1019.6 hPa | 0 mm | - | 587 W/m² | - |
| 1777732284 | 8.89° C | 52% | 1019.7 hPa | 0 mm | - | 574 W/m² | - |
| 1777731981 | 9.44° C | 51% | 1019.5 hPa | 0 mm | - | 541 W/m² | - |
| 1777731677 | 8.89° C | 54% | 1019.5 hPa | 0 mm | - | 513 W/m² | - |
| 1777731375 | 8.89° C | 54% | 1019.6 hPa | 0 mm | - | 494 W/m² | - |
| 1777731072 | 7.78° C | 59% | 1019.5 hPa | 0 mm | - | 470 W/m² | - |
| 1777730771 | 7.78° C | 63% | 1019.6 hPa | 0 mm | - | 448 W/m² | - |
| 1777730467 | 7.78° C | 66% | 1019.7 hPa | 0 mm | - | 411 W/m² | - |
| 1777730163 | 6.67° C | 68% | 1019.5 hPa | 0 mm | - | 120 W/m² | - |
| 1777729860 | 6.67° C | 71% | 1019.6 hPa | 0 mm | - | 349 W/m² | - |
| 1777729556 | 6.67° C | 74% | 1019.6 hPa | 0 mm | - | 213 W/m² | - |
| 1777729253 | 6.11° C | 74% | 1019.5 hPa | 0 mm | - | 63 W/m² | - |
| 1777728950 | 6.11° C | 77% | 1019.6 hPa | 0 mm | - | 59 W/m² | - |
| 1777728647 | 5.56° C | 80% | 1019.4 hPa | 0 mm | - | 51 W/m² | - |
| 1777728344 | 5° C | 81% | 1019.5 hPa | 0 mm | - | 90 W/m² | - |
* Rain latest hour (hover to see other rain measurements)
** Current wind speed in m/s (hover to see current wind gust speed)